Wind_Speed
68 76 79 79 80 85 86 92 99 107 100 90 59 78 96 95 85 81 80 81 80 77 75 73 70 67 66 62 61 63 61 61 64 65 62 59 59 56 54 52 51 52 52
74 74 81 84 82 87 89 89 87 90 95 93 102 77 67 79 91 88 79 77 76 79 74 74 73 74 72 66 65 64 64 65 64 65 66 66 62 63 62 60 57 58 56
78 81 81 84 91 90 96 95 97 87 91 95 99 101 99 96 101 93 92 88 85 79 75 76 78 77 74 71 67 66 65 65 68 66 64 63 64 63 64 65 65 65 67
79 83 82 84 90 93 94 102 96 103 103 92 95 101 99 99 100 99 95 95 95 87 82 81 80 77 74 73 70 70 67 67 68 67 67 64 63 63 63 64 65 64 65
72 82 83 83 85 94 95 99 104 101 96 102 104 98 94 95 97 98 94 92 94 90 83 82 83 82 78 74 74 75 73 73 72 70 70 69 67 66 67 65 65 65 67
64 77 85 85 87 91 96 98 105 111 107 96 100 104 106 108 106 95 89 86 87 95 93 88 79 84 83 82 77 74 78 77 78 81 77 74 72 71 67 68 68 69 69
62 70 81 86 88 92 98 101 103 116 117 111 99 94 94 93 95 97 100 100 95 92 90 90 91 82 79 81 79 78 79 79 80 77 77 74 73 72 73 76 75 75 74
60 63 76 86 88 91 94 100 104 108 117 123 119 109 96 91 96 97 96 100 97 89 86 88 87 90 90 88 90 82 82 85 84 82 79 77 78 79 80 81 81 80 78
57 59 67 77 88 91 94 98 102 103 107 113 118 124 118 104 95 98 97 98 97 99 98 93 87 88 90 97 98 92 89 87 88 91 89 85 87 86 88 83 82 83 83
52 55 58 68 79 86 93 96 99 99 101 105 108 112 121 122 114 98 97 100 100 104 102 96 91 89 84 86 90 87 88 87 86 82 83 80 80 82 82 81 80 80 81
50 52 53 58 70 78 87 94 96 96 96 100 101 102 108 117 118 125 103 98 99 102 102 101 102 96 95 88 86 88 92 88 84 83 83 81 84 84 83 81 82 84 83
49 48 51 55 62 68 79 86 90 91 92 93 96 97 95 102 111 109 123 113 102 101 104 105 105 101 97 94 92 85 90 86 87 86 90 87 84 88 88 86 85 87 88
47 48 47 52 58 65 70 78 80 84 88 91 92 94 95 96 99 107 105 124 127 111 108 104 104 106 104 103 103 98 86 84 83 85 87 94 97 94 92 94 93 96 93
46 47 46 50 54 61 67 71 76 79 83 87 90 91 91 93 96 97 97 105 114 131 111 112 112 110 111 113 112 108 106 100 95 79 84 89 90 88 87 95 98 98 108
47 47 46 48 52 58 64 69 73 76 79 83 88 89 90 91 94 99 96 97 98 99 107 108 118 118 112 111 114 111 110 107 105 99 101 97 100 101 97 98 103 104 102
46 46 46 46 50 56 61 67 72 75 76 79 84 88 89 91 88 91 94 94 95 97 95 99 104 114 120 120 116 113 112 112 112 107 107 102 96 92 91 93 99 99 98
45 46 47 47 48 52 57 65 71 73 76 77 79 85 87 90 91 91 91 92 93 93 92 92 95 102 108 118 117 119 119 115 112 114 114 116 110 105 97 99 99 103 102
45 46 48 49 47 50 54 62 69 72 73 76 78 78 81 85 91 92 91 93 95 95 94 91 93 97 98 103 114 118 120 119 122 117 121 122 120 116 115 111 112 112 109
45 46 48 50 50 51 53 58 66 71 72 74 76 76 77 79 83 88 92 93 96 97 95 95 97 99 101 101 105 113 119 122 121 121 125 125 125 123 121 120 125 122 121
44 46 48 50 51 53 54 56 61 68 72 74 75 75 75 75 77 80 82 88 93 96 98 98 100 103 105 107 108 110 112 115 116 120 126 124 126 127 128 127 127 126 131
44 45 48 50 51 52 55 57 59 64 70 73 74 74 74 74 74 75 75 77 81 83 86 87 89 93 96 102 103 107 108 110 113 114 114 115 123 128 128 127 127 130 131
45 45 47 50 51 52 53 55 58 62 66 71 73 73 72 72 72 72 72 74 74 74 75 75 76 79 82 86 85 88 90 98 105 105 109 110 114 115 115 118 125 129 128
43 43 43 43 45 48 50 52 55 59 65 69 71 73 73 72 71 70 70 70 70 70 71 71 69 72 74 76 76 74 74 77 83 90 94 96 99 104 108 111 112 114 117
39 38 38 38 40 41 43 47 51 55 60 66 70 72 72 72 71 71 71 69 68 68 68 69 69 70 73 75 72 73 74 78 77 79 80 82 83 87 90 95 99 104 109
36 34 34 34 36 36 37 40 44 49 54 59 64 68 71 73 74 73 70 70 69 68 67 67 69 70 71 72 70 71 70 72 71 74 77 78 77 79 82 85 88 93 97
32 31 31 32 33 34 33 36 39 44 50 54 56 60 64 68 69 69 69 68 67 68 69 69 67 68 69 67 69 67 68 69 68 69 70 71 72 72 75 80 82 83 84
Wind_Direction
248 243 241 237 235 236 237 243 246 247 243 241 250 254 253 253 251 251 252 256 254 259 258 255 254 253 253 253 254 253 252 254 254 254 255 257 259 259 259 261 262 264 267
247 241 238 236 232 229 233 234 234 240 241 234 238 233 238 244 246 249 247 251 254 255 256 254 253 253 255 257 255 253 253 256 256 257 258 258 257 257 258 260 260 263 265
244 239 236 234 232 227 227 229 231 233 235 237 236 238 239 242 248 246 249 249 248 249 253 255 256 256 257 257 257 255 255 255 256 255 256 258 257 258 261 262 263 265 268
246 239 234 233 231 228 227 228 228 233 236 231 235 237 241 238 245 248 249 251 252 249 252 250 248 250 254 254 254 258 259 257 254 254 258 259 260 261 262 264 266 268 270
248 242 234 232 230 230 228 226 227 227 232 234 233 234 238 242 244 247 248 246 248 248 246 244 248 249 249 246 249 258 255 255 253 254 257 261 261 261 264 265 266 266 264
252 242 240 233 228 228 227 227 224 225 226 229 234 239 241 242 244 243 239 241 243 251 252 245 243 249 250 251 253 253 257 256 255 257 257 260 258 260 261 266 268 267 266
256 245 242 238 233 229 228 226 226 224 226 226 227 229 235 234 234 240 242 243 245 244 245 246 243 242 245 249 252 251 253 255 258 255 258 257 256 257 263 266 268 266 266
256 249 244 241 234 231 229 228 229 226 226 228 228 228 229 232 233 235 237 239 237 238 240 239 242 245 243 245 242 246 250 253 256 256 254 255 259 262 265 267 267 267 268
256 249 246 243 237 233 230 229 230 231 229 229 228 230 228 228 231 235 234 236 239 242 243 242 239 243 244 246 246 242 245 250 254 256 258 257 259 262 264 264 265 266 265
259 251 247 242 238 236 232 230 230 231 232 233 231 230 231 230 229 230 233 237 239 240 240 238 243 243 244 245 247 245 246 248 253 254 258 261 264 262 261 261 263 264 265
264 253 247 246 241 237 236 233 231 231 233 234 234 234 230 231 233 230 229 236 237 237 238 238 239 243 247 246 248 248 247 247 251 254 257 258 260 261 260 260 262 262 263
269 258 250 248 244 242 239 236 235 232 231 233 235 234 236 236 233 232 232 228 231 232 237 237 242 243 241 245 246 248 252 253 252 253 255 255 257 258 259 262 263 261 259
271 261 253 248 247 243 239 239 236 235 234 232 233 236 235 236 238 235 233 233 232 234 234 237 240 241 243 243 248 243 248 256 253 258 259 259 261 260 259 261 264 262 262
272 264 256 248 246 244 240 237 237 235 235 234 234 235 236 237 236 237 235 236 236 236 238 241 239 240 243 247 248 248 248 243 248 255 253 251 257 260 257 266 264 264 262
273 266 257 249 245 243 241 239 237 237 235 234 233 234 236 237 236 237 237 236 237 239 241 240 238 239 241 244 246 246 248 248 249 248 251 251 256 262 267 267 269 268 271
273 267 260 250 244 242 241 239 238 238 236 234 234 233 235 236 236 235 237 237 237 238 240 241 242 240 240 241 242 245 247 249 248 245 245 249 257 256 257 259 260 265 268
272 266 259 252 245 242 240 239 238 238 237 234 235 234 233 235 236 237 238 238 237 238 238 239 242 242 243 244 243 242 243 245 246 246 248 251 251 251 252 253 256 258 261
272 266 259 254 248 243 241 239 238 237 237 236 234 234 234 235 236 235 237 237 238 239 240 243 242 241 243 243 244 245 245 245 244 245 246 248 249 252 254 250 253 258 261
274 268 260 254 250 246 242 239 238 238 236 235 235 234 234 234 236 237 235 236 237 238 240 242 243 243 246 244 243 243 245 247 248 247 246 247 248 250 252 254 253 255 259
274 269 262 256 250 247 243 240 238 237 237 235 235 234 234 235 235 236 237 238 238 239 240 241 242 244 245 245 245 245 245 246 247 249 249 249 249 250 251 252 254 256 258
276 270 264 258 251 247 245 241 238 237 236 235 234 234 234 234 235 235 237 238 239 240 242 243 244 245 246 247 248 248 249 250 250 249 250 251 251 251 253 255 256 256 257
279 274 266 260 253 248 244 242 240 237 235 235 234 234 234 235 235 235 236 238 239 239 241 243 243 245 246 248 250 250 251 251 249 253 254 253 253 254 256 257 257 258 259
282 275 269 262 256 250 246 242 238 237 236 234 234 234 235 236 236 236 236 237 238 239 240 241 242 244 247 248 248 249 249 248 249 252 255 255 254 255 257 257 257 258 260
284 277 271 266 260 254 248 245 241 237 236 236 235 234 234 236 237 236 236 236 237 238 239 241 241 243 244 246 248 250 251 252 253 253 255 255 255 255 257 258 259 259 260
285 278 273 267 262 257 251 246 242 239 237 235 235 236 235 236 237 237 237 236 236 237 239 241 242 244 245 246 248 250 252 253 253 254 254 256 257 257 256 258 259 260 261
285 278 272 267 261 256 251 246 241 237 234 234 233 234 235 236 237 237 237 237 237 238 238 239 240 243 245 247 249 251 252 252 253 254 255 256 258 257 258 259 259 259 260
Height
10575 10576 10579 10583 10593 10600 10606 10611 10619 10625 10644 10648 10672 10656 10660 10663 10672 10679 10684 10685 10691 10694 10698 10703 10708 10713 10717 10723 10727 10729 10733 10736 10739 10742 10745 10747 10749 10750 10752 10753 10754 10755 10756
10549 10551 10555 10560 10566 10576 10586 10592 10598 10600 10613 10624 10636 10642 10638 10636 10650 10661 10669 10671 10674 10677 10681 10687 10692 10696 10702 10710 10713 10717 10720 10724 10727 10730 10733 10735 10737 10738 10740 10741 10743 10744 10745
10521 10522 10527 10533 10539 10547 10560 10569 10579 10583 10592 10601 10609 10619 10620 10618 10628 10639 10649 10653 10657 10662 10668 10669 10673 10680 10686 10692 10697 10702 10705 10710 10713 10717 10719 10722 10724 10726 10728 10729 10731 10733 10733
10496 10495 10500 10506 10512 10520 10529 10543 10555 10562 10569 10579 10585 10589 10596 10603 10609 10620 10627 10636 10642 10648 10653 10653 10659 10662 10669 10676 10681 10684 10693 10696 10699 10703 10705 10708 10711 10712 10714 10716 10717 10719 10720
10470 10474 10473 10480 10487 10496 10504 10514 10526 10539 10543 10553 10563 10572 10577 10586 10592 10602 10609 10616 10617 10629 10637 10638 10642 10650 10655 10660 10665 10670 10676 10682 10684 10688 10691 10695 10698 10700 10701 10703 10704 10706 10707
10445 10451 10453 10454 10461 10468 10478 10487 10498 10513 10523 10530 10538 10549 10558 10567 10574 10585 10589 10596 10599 10608 10618 10625 10627 10634 10639 10645 10650 10654 10658 10664 10669 10674 10678 10683 10684 10686 10688 10689 10690 10691 10691
10422 10426 10431 10433 10437 10441 10452 10460 10471 10482 10497 10507 10517 10526 10535 10546 10556 10562 10570 10576 10581 10588 10599 10606 10613 10618 10620 10625 10633 10640 10642 10644 10651 10657 10663 10666 10669 10672 10673 10674 10675 10676 10676
10400 10401 10405 10409 10412 10419 10427 10437 10448 10456 10468 10480 10496 10505 10517 10525 10535 10540 10547 10554 10562 10570 10580 10589 10597 10602 10605 10612 10619 10626 10629 10628 10631 10637 10646 10651 10654 10655 10656 10658 10659 10660 10660
10379 10378 10380 10385 10389 10394 10401 10411 10422 10435 10445 10452 10466 10482 10492 10507 10512 10520 10527 10535 10541 10552 10560 10571 10577 10583 10590 10591 10600 10609 10614 10615 10616 10620 10622 10635 10636 10638 10638 10639 10641 10642 10642
10358 10356 10357 10360 10365 10373 10377 10386 10397 10409 10421 10432 10441 10456 10468 10483 10494 10500 10508 10515 10523 10531 10540 10552 10556 10566 10570 10577 10582 10592 10596 10602 10604 10605 10609 10613 10615 10617 10619 10622 10623 10624 10625
10338 10336 10335 10339 10342 10348 10357 10363 10372 10384 10396 10406 10419 10432 10443 10455 10467 10480 10489 10496 10502 10511 10519 10529 10540 10547 10552 10562 10564 10570 10578 10584 10590 10593 10592 10595 10597 10598 10600 10604 10605 10606 10607
10316 10316 10316 10317 10320 10327 10333 10341 10351 10362 10372 10384 10394 10407 10424 10435 10446 10455 10466 10474 10482 10490 10498 10510 10518 10527 10536 10543 10550 10549 10555 10566 10571 10574 10575 10580 10580 10581 10583 10584 10587 10588 10588
10295 10295 10297 10298 10300 10304 10311 10321 10330 10341 10351 10362 10372 10383 10398 10409 10422 10432 10442 10452 10462 10468 10478 10485 10493 10504 10516 10524 10531 10540 10541 10543 10550 10558 10559 10554 10556 10562 10567 10567 10567 10569 10569
10275 10275 10276 10278 10282 10285 10291 10300 10310 10318 10329 10341 10351 10361 10372 10385 10396 10406 10417 10430 10439 10447 10456 10466 10471 10478 10489 10499 10508 10517 10525 10534 10538 10539 10540 10534 10533 10540 10546 10547 10545 10547 10549
10255 10255 10257 10259 10263 10267 10272 10280 10288 10296 10307 10318 10328 10340 10350 10360 10372 10383 10393 10405 10415 10424 10433 10441 10446 10457 10465 10477 10486 10495 10502 10512 10518 10532 10519 10520 10520 10523 10529 10525 10520 10519 10525
10236 10235 10237 10240 10244 10249 10255 10262 10269 10275 10285 10294 10304 10317 10327 10336 10347 10359 10370 10382 10392 10401 10412 10419 10423 10432 10442 10452 10463 10472 10479 10486 10495 10506 10505 10501 10505 10511 10512 10508 10500 10499 10500
10217 10217 10218 10220 10224 10230 10237 10244 10250 10256 10265 10274 10282 10294 10304 10314 10325 10335 10346 10356 10368 10378 10388 10395 10403 10408 10420 10427 10436 10447 10454 10460 10470 10479 10484 10487 10492 10495 10494 10489 10490 10484 10482
10199 10199 10200 10201 10205 10211 10218 10224 10230 10237 10246 10255 10263 10273 10282 10292 10303 10312 10322 10333 10343 10353 10365 10374 10382 10387 10394 10401 10408 10417 10424 10432 10441 10453 10458 10462 10467 10469 10474 10474 10473 10466 10464
10181 10182 10183 10184 10187 10193 10199 10205 10212 10219 10227 10235 10244 10254 10261 10272 10281 10290 10301 10311 10320 10329 10341 10350 10359 10365 10368 10377 10385 10392 10400 10406 10414 10423 10431 10434 10440 10444 10449 10450 10451 10451 10445
10164 10164 10165 10166 10169 10173 10180 10188 10195 10200 10208 10216 10224 10234 10242 10252 10261 10269 10280 10290 10299 10308 10318 10328 10337 10343 10348 10354 10362 10369 10376 10383 10388 10395 10403 10408 10414 10418 10424 10427 10430 10431 10425
10147 10146 10147 10148 10150 10154 10160 10168 10176 10184 10191 10198 10206 10215 10223 10232 10241 10250 10260 10268 10277 10288 10297 10306 10316 10323 10327 10331 10337 10346 10353 10360 10365 10370 10376 10380 10387 10394 10398 10400 10403 10405 10404
10129 10128 10128 10129 10132 10135 10141 10148 10157 10166 10174 10181 10188 10196 10205 10214 10223 10232 10243 10250 10260 10270 10278 10286 10297 10303 10306 10308 10316 10323 10331 10335 10343 10350 10351 10360 10363 10367 10373 10376 10379 10379 10379
10113 10111 10110 10111 10113 10116 10122 10129 10137 10145 10154 10162 10169 10177 10186 10195 10205 10214 10224 10233 10243 10252 10260 10268 10280 10283 10286 10289 10294 10305 10311 10315 10319 10324 10329 10335 10340 10344 10346 10349 10352 10354 10354
10098 10096 10095 10096 10097 10101 10106 10111 10119 10127 10134 10142 10151 10160 10170 10178 10187 10196 10205 10217 10226 10236 10244 10251 10259 10262 10265 10269 10279 10285 10291 10296 10303 10306 10309 10313 10318 10321 10324 10325 10327 10329 10330
10084 10083 10083 10083 10084 10086 10091 10095 10102 10109 10117 10124 10132 10141 10151 10160 10167 10177 10191 10200 10209 10218 10226 10232 10239 10243 10247 10253 10262 10266 10272 10276 10284 10286 10288 10292 10298 10301 10303 10305 10306 10307 10308
10071 10071 10070 10071 10072 10074 10077 10081 10086 10092 10098 10106 10116 10124 10133 10141 10150 10162 10172 10181 10192 10198 10205 10213 10221 10226 10233 10240 10244 10251 10254 10258 10265 10266 10271 10273 10276 10280 10282 10283 10284 10284 10287